TimeEST,TemperatureF,Dew PointF,Humidity,Sea Level PressureIn,VisibilityMPH,Wind Direction,Wind SpeedMPH,Gust SpeedMPH,PrecipitationIn,Events,Conditions,WindDirDegrees,DateUTC
12:51 AM,32.0,26.1,79,30.49,10.0,NNW,4.6,-,N/A,,Clear,340,2012-11-14 05:51:00
1:51 AM,32.0,24.1,73,30.51,10.0,North,3.5,-,N/A,,Clear,10,2012-11-14 06:51:00
2:51 AM,34.0,24.1,67,30.51,10.0,NNW,3.5,-,N/A,,Clear,340,2012-11-14 07:51:00
3:51 AM,32.0,24.1,73,30.51,10.0,Calm,Calm,-,N/A,,Clear,0,2012-11-14 08:51:00
4:51 AM,32.0,25.0,75,30.52,10.0,North,3.5,-,N/A,,Overcast,10,2012-11-14 09:51:00
5:51 AM,35.1,27.0,72,30.52,10.0,North,5.8,-,N/A,,Overcast,10,2012-11-14 10:51:00
6:51 AM,37.0,25.0,62,30.54,10.0,NNE,9.2,-,N/A,,Overcast,20,2012-11-14 11:51:00
7:51 AM,37.0,26.1,65,30.55,10.0,North,4.6,-,N/A,,Clear,10,2012-11-14 12:51:00
8:51 AM,39.9,25.0,55,30.55,10.0,North,10.4,-,N/A,,Clear,10,2012-11-14 13:51:00
9:51 AM,42.1,24.1,49,30.56,10.0,NE,10.4,18.4,N/A,,Clear,40,2012-11-14 14:51:00
10:51 AM,43.0,24.1,47,30.55,10.0,NE,6.9,18.4,N/A,,Clear,50,2012-11-14 15:51:00
11:51 AM,45.0,25.0,46,30.51,10.0,NNE,8.1,18.4,N/A,,Clear,30,2012-11-14 16:51:00
12:51 PM,46.9,24.1,41,30.49,10.0,NNE,10.4,-,N/A,,Clear,20,2012-11-14 17:51:00
1:51 PM,46.9,23.0,39,30.49,10.0,NNE,3.5,-,N/A,,Clear,20,2012-11-14 18:51:00
2:51 PM,48.0,23.0,37,30.47,10.0,ENE,4.6,-,N/A,,Clear,60,2012-11-14 19:51:00
3:51 PM,46.0,24.1,42,30.47,10.0,NE,5.8,-,N/A,,Clear,50,2012-11-14 20:51:00
4:51 PM,39.9,23.0,51,30.47,10.0,East,4.6,-,N/A,,Clear,80,2012-11-14 21:51:00
5:51 PM,39.9,21.9,49,30.47,10.0,NNE,3.5,-,N/A,,Clear,30,2012-11-14 22:51:00
6:51 PM,35.1,23.0,61,30.48,10.0,NE,3.5,-,N/A,,Clear,50,2012-11-14 23:51:00
7:51 PM,35.1,21.9,59,30.48,10.0,ENE,3.5,-,N/A,,Clear,60,2012-11-15 00:51:00
8:51 PM,34.0,21.9,61,30.48,10.0,Calm,Calm,-,N/A,,Clear,0,2012-11-15 01:51:00
9:51 PM,35.1,21.9,59,30.47,10.0,NNE,3.5,-,N/A,,Clear,20,2012-11-15 02:51:00
10:51 PM,32.0,21.0,64,30.49,10.0,East,3.5,-,N/A,,Clear,80,2012-11-15 03:51:00
11:51 PM,33.1,21.9,64,30.48,10.0,Calm,Calm,-,N/A,,Clear,0,2012-11-15 04:51:00